Main page


Airports :

Tétouan, Morocco

Sania Ramel Airport

latitude: 35-35N, longitude: 005-20W, elevation: 10 m

Current weather observation

The report was made 20 minutes ago, at 23:00 UTC
Wind 14 kt from the West/Southwest
Temperature 12°C
Humidity 54%
Pressure 1025 hPa

METAR: GMTN 222300Z AUTO 25014KT NCD 12/03 Q1025

Time: 23:20 (23:20 UTC)

TAF: missing

Weather observations and forecasts of more than 4000 airports (METAR and TAF reports).

The available stations are represented by yellow and red dots on the map.

Hover mouse over dot to see the name of the station.

Then click to see weather observations and forecasts.

To change the map : click on the green buttons with a black cross to zoom in, on the green button with a dash to zoom out, or on the green arrows for adjacent maps.